This is the latest recevied weather packets stored in our database for station/object KN6ETB-1. If no packets are shown the sender has not sent any weather packets the latest 10 day(s).
| Time | Temp. | Humidity | Pressure | Rain* | Wind** | Luminosity | Snow |
|---|---|---|---|---|---|---|---|
| 1778033170 | 17.22° C | 74% | 1012.5 hPa | 0 mm | - | 45 W/m² | - |
| 1778032868 | 17.22° C | 74% | 1012.7 hPa | 0 mm | - | 52 W/m² | - |
| 1778032566 | 17.22° C | 74% | 1012.7 hPa | 0 mm | - | 59 W/m² | - |
| 1778032262 | 17.22° C | 74% | 1012.5 hPa | 0 mm | - | 62 W/m² | - |
| 1778031960 | 17.78° C | 73% | 1012.4 hPa | 0 mm | - | 62 W/m² | - |
| 1778031655 | 17.78° C | 74% | 1012.5 hPa | 0 mm | - | 65 W/m² | - |
| 1778031354 | 17.78° C | 74% | 1012.6 hPa | 0 mm | - | 69 W/m² | - |
| 1778031050 | 17.78° C | 73% | 1012.4 hPa | 0 mm | - | 70 W/m² | - |
| 1778030746 | 17.78° C | 73% | 1012.6 hPa | 0 mm | - | 69 W/m² | - |
| 1778030443 | 18.33° C | 73% | 1012.5 hPa | 0 mm | - | 82 W/m² | - |
| 1778030141 | 18.33° C | 72% | 1012.6 hPa | 0 mm | - | 84 W/m² | - |
| 1778029837 | 18.33° C | 71% | 1012.4 hPa | 0 mm | - | 108 W/m² | - |
| 1778029537 | 18.89° C | 71% | 1012.2 hPa | 0 mm | - | 107 W/m² | - |
| 1778029233 | 18.89° C | 71% | 1012.2 hPa | 0 mm | - | 111 W/m² | - |
| 1778028930 | 18.89° C | 70% | 1012 hPa | 0 mm | - | 131 W/m² | - |
| 1778028626 | 18.89° C | 70% | 1012.2 hPa | 0 mm | - | 154 W/m² | - |
| 1778028324 | 18.89° C | 69% | 1012.2 hPa | 0 mm | - | 167 W/m² | - |
| 1778028020 | 19.44° C | 69% | 1012.3 hPa | 0 mm | - | 178 W/m² | - |
| 1778027716 | 18.89° C | 70% | 1012.2 hPa | 0 mm | - | 278 W/m² | - |
| 1778027412 | 18.89° C | 70% | 1012.3 hPa | 0 mm | - | 206 W/m² | - |
| 1778027109 | 18.89° C | 70% | 1012.2 hPa | 0 mm | - | 209 W/m² | - |
| 1778026804 | 18.89° C | 71% | 1012.2 hPa | 0 mm | - | 203 W/m² | - |
| 1778026501 | 18.89° C | 70% | 1012.1 hPa | 0 mm | - | 189 W/m² | - |
| 1778026198 | 19.44° C | 70% | 1012.3 hPa | 0 mm | - | 200 W/m² | - |
| 1778025895 | 18.89° C | 71% | 1012.1 hPa | 0 mm | - | 235 W/m² | - |
* Rain latest hour (hover to see other rain measurements)
** Current wind speed in m/s (hover to see current wind gust speed)